Everett, WA
on Monday, February 4, 2013

Monday
Previous Day Next Day
Daily Summary
 ActualAverageRecord
Temperature
Mean Temperature °F / °C °F / °C  
Max Temperature 48°F / 9°C 48°F / 8°C 61°F / 16°C (1992)
Min Temperature 42°F / 6°C 33°F / 0°C 6°F / -14°C (1989)
Degree Days
Heating Degree Days 20    
Moisture
Dew Point 40°F / 4°C   
Average Humidity 81    
Maximum Humidity 89    
Minimum Humidity 69    
Precipitation
Precipitation 0.00 in / 0.00 cm in / cm in / cm ()
Wind
Wind Speed 8 mph / 13 km/h   
Max Wind Speed 12 mph / 19 km/h   
Max Gust Speed mph / km/h   
Visibility 10 miles / 16 kilometers   
Events     
Averages and records for this station are not official NWS values.
Key: T is trace of precipitation, MM is missing value
Source: NWS Daily Summary
Seasonal Weather Averages
Time(PST)TemperatureDew PointHumidity Pressure Visibility Wind DirectionWind SpeedGust SpeedPrecipitationEvents Conditions
12:53 AM 44.1°F / 6.7°C 41.0°F / 5.0°C 89% 30.20 in / 1022.5 hPa 10.0 miles / 16.1 kilometers South 9.2 mph / 14.8 km/h - N/A   Overcast
2:53 AM 42.8°F / 6.0°C 39.2°F / 4.0°C 87% 30.18 in / 1021.9 hPa 10.0 miles / 16.1 kilometers South 8.1 mph / 13.0 km/h - N/A   Overcast
3:42 AM 42.8°F / 6.0°C 39.2°F / 4.0°C 87% 30.18 in / 1021.9 hPa 10.0 miles / 16.1 kilometers South 9.2 mph / 14.8 km/h - N/A   Overcast
3:53 AM 43.0°F / 6.1°C 39.9°F / 4.4°C 89% 30.19 in / 1022.2 hPa 10.0 miles / 16.1 kilometers South 10.4 mph / 16.7 km/h - N/A   Overcast
4:50 AM 44.6°F / 7.0°C 39.2°F / 4.0°C 81% 30.16 in / 1021.2 hPa 10.0 miles / 16.1 kilometers South 6.9 mph / 11.1 km/h - N/A   Overcast
4:53 AM 44.1°F / 6.7°C 39.9°F / 4.4°C 85% 30.17 in / 1021.7 hPa 10.0 miles / 16.1 kilometers South 8.1 mph / 13.0 km/h - N/A   Overcast
5:51 AM 44.6°F / 7.0°C 39.2°F / 4.0°C 81% 30.16 in / 1021.2 hPa 10.0 miles / 16.1 kilometers South 6.9 mph / 11.1 km/h - N/A   Overcast
5:53 AM 44.1°F / 6.7°C 39.9°F / 4.4°C 85% 30.17 in / 1021.7 hPa 10.0 miles / 16.1 kilometers South 8.1 mph / 13.0 km/h - N/A   Overcast
6:53 AM 43.0°F / 6.1°C 39.9°F / 4.4°C 89% 30.15 in / 1021.0 hPa 10.0 miles / 16.1 kilometers SSE 11.5 mph / 18.5 km/h - N/A   Overcast
7:53 AM 43.0°F / 6.1°C 39.9°F / 4.4°C 89% 30.16 in / 1021.2 hPa 9.0 miles / 14.5 kilometers SSE 9.2 mph / 14.8 km/h - N/A   Overcast
8:53 AM 44.1°F / 6.7°C 39.9°F / 4.4°C 85% 30.16 in / 1021.2 hPa 10.0 miles / 16.1 kilometers SSE 9.2 mph / 14.8 km/h - N/A   Overcast
9:04 AM 44.6°F / 7.0°C 39.2°F / 4.0°C 81% 30.15 in / 1020.9 hPa 10.0 miles / 16.1 kilometers SSE 8.1 mph / 13.0 km/h - N/A   Overcast
9:53 AM 44.1°F / 6.7°C 39.9°F / 4.4°C 85% 30.16 in / 1021.2 hPa 10.0 miles / 16.1 kilometers Variable 6.9 mph / 11.1 km/h - N/A   Overcast
10:24 AM 44.6°F / 7.0°C 39.2°F / 4.0°C 81% 30.16 in / 1021.2 hPa 10.0 miles / 16.1 kilometers SSE 8.1 mph / 13.0 km/h - N/A   Overcast
10:41 AM 44.6°F / 7.0°C 39.2°F / 4.0°C 81% 30.16 in / 1021.2 hPa 10.0 miles / 16.1 kilometers SSE 8.1 mph / 13.0 km/h - N/A   Overcast
10:53 AM 45.0°F / 7.2°C 39.0°F / 3.9°C 80% 30.17 in / 1021.7 hPa 10.0 miles / 16.1 kilometers South 10.4 mph / 16.7 km/h - N/A   Overcast
11:53 AM 46.0°F / 7.8°C 39.0°F / 3.9°C 76% 30.15 in / 1020.8 hPa 10.0 miles / 16.1 kilometers SSE 11.5 mph / 18.5 km/h - N/A   Overcast
12:53 PM 46.9°F / 8.3°C 39.0°F / 3.9°C 74% 30.11 in / 1019.5 hPa 10.0 miles / 16.1 kilometers South 9.2 mph / 14.8 km/h - N/A   Scattered Clouds
1:53 PM 48.9°F / 9.4°C 39.0°F / 3.9°C 69% 30.08 in / 1018.5 hPa 10.0 miles / 16.1 kilometers SSE 9.2 mph / 14.8 km/h - N/A   Scattered Clouds
2:53 PM 48.9°F / 9.4°C 39.0°F / 3.9°C 69% 30.04 in / 1017.3 hPa 10.0 miles / 16.1 kilometers East 5.8 mph / 9.3 km/h - N/A   Partly Cloudy
3:53 PM 48.0°F / 8.9°C 39.9°F / 4.4°C 74% 30.03 in / 1016.7 hPa 10.0 miles / 16.1 kilometers Calm Calm - N/A   Mostly Cloudy
4:53 PM 46.0°F / 7.8°C 39.9°F / 4.4°C 79% 30.01 in / 1016.3 hPa 10.0 miles / 16.1 kilometers Calm Calm - N/A   Overcast
5:53 PM 46.9°F / 8.3°C 39.9°F / 4.4°C 77% 30.01 in / 1016.0 hPa 10.0 miles / 16.1 kilometers ESE 3.5 mph / 5.6 km/h - N/A   Overcast
6:53 PM 48.0°F / 8.9°C 39.9°F / 4.4°C 74% 29.98 in / 1015.2 hPa 10.0 miles / 16.1 kilometers Variable 5.8 mph / 9.3 km/h - N/A   Overcast
7:53 PM 46.9°F / 8.3°C 39.9°F / 4.4°C 77% 29.93 in / 1013.4 hPa 10.0 miles / 16.1 kilometers ESE 8.1 mph / 13.0 km/h - N/A   Overcast
8:53 PM 46.9°F / 8.3°C 39.9°F / 4.4°C 77% 29.90 in / 1012.5 hPa 10.0 miles / 16.1 kilometers ESE 6.9 mph / 11.1 km/h - N/A   Scattered Clouds
9:53 PM 46.0°F / 7.8°C 41.0°F / 5.0°C 83% 29.91 in / 1012.6 hPa 10.0 miles / 16.1 kilometers SW 3.5 mph / 5.6 km/h - N/A   Overcast
10:53 PM 46.9°F / 8.3°C 39.9°F / 4.4°C 77% 29.88 in / 1011.9 hPa 10.0 miles / 16.1 kilometers SSE 6.9 mph / 11.1 km/h - N/A   Overcast
11:53 PM 46.0°F / 7.8°C 39.9°F / 4.4°C 79% 29.89 in / 1012.0 hPa 10.0 miles / 16.1 kilometers SSE 10.4 mph / 16.7 km/h - N/A   Overcast
Moon Phase
Feb. 04 Feb. 10 Feb. 17 Feb. 25 Mar. 04
Sunrise:07:31 AM (PST) Moon Rise:02:19 AM (PST)2/4
Sunset:05:14 PM (PST) Moon Set:11:36 AM (PST)2/4

Copyright © 2014 The Weather Underground, Inc.